This is the latest recevied weather packets stored in our database for station/object N0HEQ. If no packets are shown the sender has not sent any weather packets the latest 10 day(s).
| Time | Temp. | Humidity | Pressure | Rain* | Wind** | Luminosity | Snow |
|---|---|---|---|---|---|---|---|
| 1777160354 | 12.22° C | 41% | 1012 hPa | 0 mm | - | 55 W/m² | - |
| 1777160051 | 12.22° C | 40% | 1012.1 hPa | 0 mm | - | 68 W/m² | - |
| 1777159747 | 12.22° C | 40% | 1011.9 hPa | 0 mm | - | 73 W/m² | - |
| 1777159442 | 12.22° C | 41% | 1012.2 hPa | 0 mm | - | 82 W/m² | - |
| 1777159139 | 12.22° C | 40% | 1011.9 hPa | 0 mm | - | 86 W/m² | - |
| 1777158836 | 12.22° C | 39% | 1011.9 hPa | 0 mm | - | 106 W/m² | - |
| 1777158534 | 12.78° C | 39% | 1011.9 hPa | 0 mm | - | 96 W/m² | - |
| 1777158230 | 12.78° C | 39% | 1012.1 hPa | 0 mm | - | 111 W/m² | - |
| 1777157926 | 12.78° C | 38% | 1011.7 hPa | 0 mm | - | 103 W/m² | - |
| 1777157622 | 13.33° C | 38% | 1012 hPa | 0 mm | - | 114 W/m² | - |
| 1777157319 | 13.33° C | 37% | 1011.6 hPa | 0 mm | - | 138 W/m² | - |
| 1777157018 | 13.33° C | 37% | 1011.5 hPa | 0 mm | - | 154 W/m² | - |
| 1777156713 | 13.33° C | 37% | 1011.7 hPa | 0 mm | - | 191 W/m² | - |
| 1777156410 | 13.33° C | 37% | 1011.3 hPa | 0 mm | - | 157 W/m² | - |
| 1777156106 | 13.33° C | 37% | 1011.5 hPa | 0 mm | - | 156 W/m² | - |
| 1777155803 | 13.89° C | 37% | 1011.6 hPa | 0 mm | - | 196 W/m² | - |
| 1777155503 | 13.89° C | 37% | 1011.3 hPa | 0 mm | - | 241 W/m² | - |
| 1777155201 | 13.89° C | 37% | 1011.6 hPa | 0 mm | - | 227 W/m² | - |
| 1777154898 | 13.89° C | 36% | 1011.6 hPa | 0 mm | - | 191 W/m² | - |
| 1777154594 | 14.44° C | 36% | 1011.5 hPa | 0 mm | - | 351 W/m² | - |
| 1777154290 | 15° C | 35% | 1011.5 hPa | 0 mm | - | 454 W/m² | - |
| 1777153986 | 15° C | 34% | 1011.4 hPa | 0 mm | - | 405 W/m² | - |
| 1777153681 | 15° C | 35% | 1011.6 hPa | 0 mm | - | 506 W/m² | - |
| 1777153378 | 15.56° C | 34% | 1011.5 hPa | 0 mm | - | 464 W/m² | - |
| 1777153074 | 15° C | 34% | 1011.5 hPa | 0 mm | - | 620 W/m² | - |
* Rain latest hour (hover to see other rain measurements)
** Current wind speed in m/s (hover to see current wind gust speed)